User: anonymous   Login
Location: Unspecified
(0.0000°N, 0.0000°E)
Time: 02:05:06
(UTC+00:00)
Language:

FALCON 9 R/B - Orbit

View from above orbital plane
View from above orbital plane
View from above satellite
View from above satellite

Ground track
Ground track

The orbit data is extracted from the following two-line orbital elements,

1 37253U 10066K   17081.55546314 +.00004076 +00000-0 +40412-3 0  9994
2 37253 034.5013 120.2070 4282339 014.6509 354.6825 06.88866108154606
Epoch (UTC): 22 March 2017 13:19:52
Eccentricity: 0.4282339
inclination: 34.5013°
perigee height: 293 km
apogee height: 10286 km
right ascension of ascending node: 120.2070°
argument of perigee: 14.6509°
revolutions per day: 6.88866108
mean anomaly at epoch: 354.6825°
orbit number at epoch: 15460

The dashed part of the orbit path shows where the satellite is in the earth's shadow,  

DLR